Location: Newark
(48.1500°N, 2.9667°W)
Time: 19:31:51
(UTC+00:00)

Courier 1B - Visible Passes

Search period start: 24 January 2020 00:00
Search period end: 03 February 2020 00:00
Orbit: 962 x 1209 km, 28.3° (Epoch: 24 January)

Date Brightness Start Highest point End Pass type
(mag) Time Alt. Az. Time Alt. Az. Time Alt. Az.
24 Jan 9.8 04:21:52 15° S 04:21:58 15° S 04:25:53 10° SE visible
24 Jan 9.8 06:10:33 10° SW 06:14:47 16° S 06:19:04 10° SSE visible
25 Jan 10.2 03:31:29 10° SE 03:31:29 10° SE 03:31:37 10° SE visible
25 Jan 9.7 05:18:23 13° SSW 05:21:14 16° S 05:25:35 10° SSE visible
25 Jan 10.0 07:11:41 10° SW 07:14:01 11° SSW 07:16:21 10° S visible
26 Jan 9.7 04:27:59 16° S 04:27:59 16° S 04:31:55 10° SE visible
26 Jan 9.8 06:17:14 10° SW 06:20:29 13° SSW 06:23:47 10° SSE visible
27 Jan 10.1 03:37:35 11° SE 03:37:35 11° SE 03:38:02 10° SE visible
27 Jan 9.7 05:24:29 12° SSW 05:26:57 14° S 05:30:43 10° SSE visible
28 Jan 9.7 04:34:04 15° S 04:34:04 15° S 04:37:22 10° SSE visible
29 Jan 10.1 03:43:41 10° SSE 03:43:41 10° SSE 03:43:48 10° SSE visible
29 Jan 9.8 05:30:39 10° SSW 05:32:40 11° SSW 05:34:41 10° S visible
30 Jan 9.8 04:40:12 12° S 04:40:12 12° S 04:42:04 10° SSE visible
